CAPE
0 0 0 0 0 0 0 0 0 0 0 0 0 0 0 0 0 0 0 0 0 0
0 0 0 0 0 0 0 0 0 0 0 0 0 0 0 0 0 0 0 0 0 0
0 0 0 0 0 0 0 0 0 0 0 0 0 0 0 0 0 0 0 0 0 0
1 0 0 0 0 0 0 0 0 0 0 0 0 0 0 0 0 0 0 0 0 0
0 0 0 0 0 0 0 0 0 0 0 0 0 0 0 0 0 0 0 0 0 0
1 0 0 0 0 0 0 0 0 0 0 0 0 0 0 0 0 0 0 0 0 0
2 0 0 0 0 0 0 0 0 0 0 0 0 0 0 0 0 0 0 0 0 0
0 0 2 0 1 0 0 0 0 0 0 0 0 0 0 0 0 0 0 0 0 0
0 0 3 5 3 0 0 0 1 1 2 2 1 0 0 0 0 0 0 0 0 0
0 0 0 1 0 0 0 0 1 1 1 1 1 3 4 2 0 0 0 0 0 0
0 0 0 0 0 0 0 0 0 1 1 2 2 3 4 0 0 0 0 0 0 0
0 0 0 0 0 0 0 1 0 1 1 1 2 2 3 0 0 0 0 0 0 0
0 0 0 0 0 0 1 1 1 1 1 2 2 1 2 0 0 5 1 0 0 0
0 0 0 0 0 0 0 0 0 1 1 1 1 3 5 1 0 0 1 2 2 0
CIN
0 0 0 0 0 0 0 0 0 0 0 0 0 0 0 0 0 0 0 0 0 0
0 0 0 0 0 0 0 0 0 0 0 0 0 0 0 0 0 0 0 0 0 0
0 0 0 0 0 0 0 0 0 0 0 0 0 0 0 0 0 0 0 0 0 0
0 0 0 0 0 0 0 0 0 0 0 0 0 0 0 0 0 0 0 0 0 0
0 0 0 0 0 0 0 0 0 0 0 0 0 0 0 0 0 0 0 0 0 0
0 0 0 0 0 0 0 0 0 0 0 0 0 0 0 0 0 0 0 0 0 0
0 0 0 0 0 0 0 0 0 0 0 0 0 0 0 0 0 0 0 0 0 0
0 0 0 0 -13 0 0 0 0 0 0 0 0 0 0 0 0 0 0 0 0 0
0 0 -19 -24 -32 0 0 0 0 0 0 0 0 0 0 0 0 0 0 0 0 0
0 0 -4 -15 0 0 0 0 0 0 0 0 0 0 0 0 0 0 0 0 0 0
0 0 0 0 0 0 0 0 0 0 0 0 0 0 0 0 0 0 0 0 0 0
0 0 0 0 0 0 0 0 0 0 0 0 0 0 0 0 0 0 0 0 0 0
0 0 0 0 0 0 0 0 0 0 0 0 0 0 0 0 0 0 0 0 0 0
0 0 0 0 0 0 0 0 0 0 0 0 0 0 0 0 0 0 0 0 0 0
Wind_Speed
24 25 26 24 22 23 26 26 21 19 20 20 19 18 17 19 19 19 19 20 20 20
24 27 24 27 26 23 25 26 25 24 23 22 21 20 20 19 20 21 21 21 20 21
30 30 29 26 26 27 26 24 23 23 21 23 21 21 22 22 20 21 21 22 22 24
28 29 28 29 30 29 29 28 30 27 25 25 23 24 22 21 21 21 22 21 20 21
28 27 28 28 28 28 29 28 29 28 28 27 26 24 22 22 20 20 21 20 19 19
26 27 29 29 29 28 28 29 28 27 27 26 24 23 22 20 20 17 20 17 19 18
25 26 27 27 27 27 27 26 26 26 25 24 24 23 21 21 21 19 18 17 16 19
25 25 25 25 25 26 25 25 24 24 25 24 24 22 21 20 19 18 18 12 11 11
26 26 25 24 23 23 23 21 21 20 21 21 23 23 21 19 18 17 15 12 12 8
27 28 27 25 25 25 23 21 19 18 18 19 20 19 17 17 16 12 13 12 11 9
28 28 28 27 26 25 22 19 17 17 17 17 18 15 15 16 15 16 13 12 10 9
29 29 28 27 25 22 21 20 18 17 16 16 15 12 12 12 12 13 12 11 9 8
30 29 28 27 25 23 21 20 19 18 16 14 11 10 10 11 10 10 9 9 8 7
30 28 25 23 23 21 20 18 17 16 14 11 9 10 10 11 10 10 8 8 8 6
Wind_Direction
249 251 253 253 251 252 255 257 254 251 255 258 259 259 261 265 265 264 268 270 274 278
254 249 253 256 260 262 260 260 259 256 255 257 260 261 262 265 267 270 271 272 275 280
258 259 261 262 263 263 266 266 262 256 255 258 258 260 264 267 270 272 276 277 279 280
263 266 267 266 266 266 267 267 265 265 263 261 264 263 262 268 272 274 277 280 280 283
266 268 269 270 269 270 269 270 268 265 263 264 263 264 266 270 272 272 276 278 278 283
274 272 272 272 272 272 272 271 270 267 264 263 262 261 264 265 266 276 280 274 280 280
282 279 279 279 277 275 274 274 272 269 267 263 261 261 261 262 263 269 275 279 271 270
292 288 285 284 282 280 277 276 275 269 267 265 260 261 258 261 262 260 265 273 275 270
293 291 289 287 286 287 284 280 277 273 265 263 264 260 254 252 254 255 256 264 265 265
294 291 289 289 287 286 286 284 279 274 271 266 265 257 245 239 247 251 253 249 252 266
298 292 289 288 288 288 286 283 279 274 272 272 269 248 244 239 247 256 250 252 253 247
300 295 290 289 288 291 290 285 282 280 275 271 272 236 228 234 242 243 250 256 249 253
303 300 292 289 286 288 291 290 285 283 279 272 259 222 215 215 220 232 244 253 253 261
302 301 299 294 289 288 289 291 289 285 283 274 245 227 215 207 227 228 227 233 252 252